Volver al catálogo

SL-8 DEB

ActivoLEO
NORAD 1590·DEBRIS·🇷🇺 Russia

Lanzado Sep 18, 1965 desde Baikonur Cosmodrome

Loading…

Próximos Pases (próximas 24 horas)

TLE

ActualizadoSource: Space-Track

Época: Sep 14, 2026, 06:28 UTC

1 01590U 65073G   26257.27003363  .00000025  00000-0  75583-3 0  9990
2 01590  56.0824 215.2117 0171725 158.3245 344.9812 12.49814118769475

Sigue SL-8 DEB en tiempo real con AllMySat

Download on the App Store